Regional Weather Roundup
Issued by NWS

Home | Current Version | Previous Version | Graphics & Text | Print | Product List | Glossary Off
Versions: 1 2 3 4 5 6 7 8 9 10 11 12 13 14 15 16 17 18 19 20 21 22 23 24 25 26 27 28 29 30 31 32 33 34 35 36 37 38 39 40 41 42 43 44 45 46 47 48 49 50

000
ASUS43 KTOP 181108
RWRKS

WEATHER ROUNDUP FOR KANSAS
NATIONAL WEATHER SERVICE GOODLAND KS
500 AM CST WED JAN 18 2017

NOTE:  "FAIR" INDICATES FEW OR NO CLOUDS BELOW 12,000 FEET WITH NO
SIGNIFICANT WEATHER AND/OR OBSTRUCTIONS TO VISIBILITY.

KSZ001>006-013>018-027>032-041>047-181200-
NORTHWEST KANSAS

CITY           SKY/WX    TMP DP  RH WIND       PRES   REMARKS
GOODLAND       CLOUDY    27  25  92 W6        29.95F
HAYS           PTCLDY    31  28  89 S3        30.05F
HILL CITY      PTCLDY    32  29  88 CALM      30.03F
RUSSELL        CLEAR     33  29  85 SW12      30.03F WCI  24
$$

KSZ061>065-074>080-084>089-181200-
SOUTHWEST KANSAS

CITY           SKY/WX    TMP DP  RH WIND       PRES   REMARKS
DODGE CITY     PTCLDY    39  33  79 SW14      30.02F WCI  31
ELKHART          N/A     38  30  73 W17         N/A  WCI  28
GARDEN CITY    CLEAR     31  28  89 S8        30.02F
GREAT BEND     CLEAR     31  28  89 SE5       30.07F
LIBERAL        CLOUDY    37  32  81 SW6       30.03F
PRATT          PTCLDY    30  27  87 CALM      30.07F
$$

KSZ066>073-081>083-090>101-181200-
SOUTHEAST KANSAS

CITY           SKY/WX    TMP DP  RH WIND       PRES   REMARKS
CHANUTE        FOG       29  28  96 SE7       30.15F VSB 1/4
COFFEYVILLE    CLOUDY    30  29  96 CALM      30.17R FOG
HUTCHINSON     PTCLDY    31  28  89 CALM      30.09F
MEDICINE LODGE   N/A     32  29  88 N5        30.08F
NEWTON         CLEAR     34  30  85 S5        30.11F
PARSONS        CLEAR     30  28  92 CALM      30.17S FOG
WICHITA INTL   CLOUDY    33  30  88 E3        30.10F
WICHITA JABRA  CLEAR     33  30  88 CALM      30.10F
WICHITA MCCONL CLEAR     36  30  78 CALM      30.10F
WINFIELD       PTCLDY    34  31  88 CALM      30.13F
$$

KSZ007>012-019>026-033>040-048>060-102>105-181200-
NORTHEAST KANSAS

CITY           SKY/WX    TMP DP  RH WIND       PRES   REMARKS
CONCORDIA      CLOUDY    34  30  85 SW6       30.07F
EMPORIA        CLEAR     28  27  96 SE8       30.12S
LAWRENCE       CLOUDY    23  23 100 E6        30.14F FOG
MANHATTAN      CLOUDY    24  22  91 CALM      30.11F
MARYSVILLE     CLOUDY    28  27  93 S5        30.08F
OLATHE IND     FOG       27  27 100 S6        30.14F VSB 1/2
OLATHE EXE     FOG       28  28 100 S6        30.14S VSB 1/2
SALINA           N/A    N/A N/A N/A MISG        N/A
TOPEKA BILLARD CLOUDY    26  22  84 CALM      30.12F
TOPEKA FORBES  CLOUDY    27  24  89 SE5       30.12F
$$



USA.gov is the U.S. government's official web portal to all federal, state and local government web resources and services.